CAPE
564 95 36 10 0 0 26 60 164 200 164 178 125 94 68 56 60 3 1 135 489 677 777 985 1116 679 583 527 433 401 353 322 315 305 262 214 168 149 165 173 224 358 662 1158 905 1114 1446 1472 1263
0 0 0 0 0 6 31 38 292 321 290 233 193 137 108 118 11 8 1 2 607 723 588 744 992 728 551 470 426 424 433 383 350 309 244 163 107 89 73 86 98 162 403 476 826 1049 1280 1412 1470
0 0 0 0 0 13 11 95 256 344 306 188 170 212 302 265 131 20 152 80 465 493 505 672 829 727 671 560 413 316 282 307 317 314 273 197 116 71 53 26 32 60 130 371 574 897 1119 1131 1149
0 0 0 0 0 2 20 187 297 226 233 149 101 65 222 357 349 355 308 336 384 376 422 519 632 685 629 532 500 485 431 321 210 152 121 110 92 79 54 21 0 0 1 44 127 260 413 442 439
0 0 13 13 0 0 41 66 281 261 135 135 178 249 223 329 420 381 313 241 152 106 150 318 426 354 234 175 211 197 156 123 102 121 143 109 99 85 32 0 0 0 0 0 0 98 130 149 165
18 5 0 0 3 0 91 148 175 259 197 164 162 244 255 282 309 275 207 96 50 18 14 29 88 82 68 50 28 7 0 0 0 0 0 0 0 15 108 45 81 112 90 10 0 0 14 58 65
17 0 1 3 0 2 193 232 415 179 173 156 130 264 264 248 324 288 241 140 70 41 20 0 0 0 0 0 0 0 0 0 0 0 0 0 0 12 21 25 127 157 179 428 347 84 55 1 35
0 0 15 3 32 205 754 437 305 331 326 290 218 144 270 249 289 73 0 7 10 0 0 0 0 0 0 0 0 0 0 0 0 0 0 0 0 0 0 64 96 139 71 92 139 425 270 121 86
0 9 0 6 0 40 334 212 69 89 139 85 62 109 199 47 0 0 0 0 0 0 0 0 0 0 0 0 0 0 4 14 10 0 0 0 0 0 0 8 6 36 54 55 151 260 283 292 312
0 0 6 6 0 207 223 194 164 111 109 119 48 0 16 42 0 0 0 0 0 0 0 0 0 0 0 0 0 0 0 0 0 0 0 0 0 0 0 0 0 0 8 16 49 72 151 105 37
1 16 20 10 7 262 149 160 127 57 20 74 23 0 0 0 0 0 0 0 0 0 0 0 0 0 0 0 0 0 0 0 0 0 0 0 0 0 0 0 0 0 0 0 0 5 19 34 0
12 41 182 338 403 360 197 99 26 32 58 18 0 0 0 0 0 0 0 0 0 0 0 0 0 0 0 0 0 0 0 0 0 0 0 0 0 0 0 0 0 0 0 0 0 0 0 4 0
0 7 191 319 88 107 118 57 29 38 5 0 0 0 0 0 0 0 0 0 0 0 0 0 0 0 0 0 0 0 0 0 0 0 0 0 0 0 0 0 0 0 0 0 0 0 0 2 18
0 6 45 93 188 107 56 21 43 18 0 0 0 0 0 0 0 0 0 0 8 5 1 0 0 0 0 0 0 0 0 0 0 0 0 0 0 0 0 0 0 0 0 0 0 8 0 0 0
32 0 2 0 276 200 63 131 24 45 0 0 0 0 0 0 0 0 5 5 6 0 0 0 0 0 0 0 0 0 0 0 0 0 0 0 0 0 0 0 0 0 0 0 0 0 0 1 4
23 29 0 0 313 283 313 133 30 1 0 0 0 0 0 0 0 14 7 1 4 0 0 0 0 0 0 0 0 0 0 0 0 0 0 0 0 0 0 0 0 0 0 0 0 0 1 0 0
1 0 4 62 0 38 81 125 67 46 31 0 0 0 0 0 18 16 2 0 0 0 0 0 0 0 0 0 0 0 0 0 0 0 0 0 0 0 0 0 0 0 0 0 0 0 0 2 0
23 0 18 43 7 12 23 50 210 159 146 61 35 6 0 19 12 13 0 0 0 0 0 0 0 0 0 0 0 0 0 0 0 0 0 0 0 0 0 0 0 0 0 0 0 0 0 0 0
58 48 136 39 0 0 3 9 2 1 91 81 74 21 83 113 56 0 0 0 0 0 0 0 0 0 0 0 0 0 0 0 0 0 0 0 0 0 0 0 0 0 0 0 0 0 0 0 0
82 80 43 3 0 14 19 3 17 44 47 13 14 39 45 35 15 0 0 0 0 0 0 0 0 0 0 0 0 0 0 0 0 0 0 0 0 0 0 0 0 0 0 0 0 0 0 0 0
3 26 40 27 3 2 0 0 43 53 22 8 4 29 29 4 4 0 0 0 0 0 0 0 0 0 0 0 0 0 0 0 0 0 0 0 0 0 0 0 0 0 0 0 0 0 0 0 0
5 0 38 16 14 36 14 0 66 100 5 0 0 0 0 36 2 0 0 0 0 0 0 0 0 0 0 0 0 0 0 0 0 0 0 0 0 0 0 0 0 0 0 0 0 0 0 0 0
0 23 0 0 32 28 29 0 0 5 6 12 0 0 2 8 22 0 1 0 0 0 0 0 0 0 0 0 0 0 0 0 0 0 0 0 0 0 0 0 0 0 0 0 0 0 0 0 0
0 7 4 0 0 0 0 0 0 9 80 83 31 11 0 37 23 8 3 0 0 0 0 0 0 0 0 0 0 0 0 0 0 0 0 0 0 0 0 0 0 0 0 0 0 0 0 0 0
0 0 0 0 0 2 0 0 0 0 6 8 33 39 16 5 13 16 0 0 0 0 0 0 0 0 0 0 0 0 0 0 0 0 0 0 0 0 0 0 0 0 0 0 0 6 4 0 0
0 0 0 0 0 0 0 0 0 0 3 0 5 10 0 16 18 1 0 0 0 0 0 0 0 0 0 0 3 0 0 0 0 0 0 0 0 0 0 0 0 0 0 1 7 6 0 0 0
0 0 0 0 0 0 1 25 13 55 14 12 4 1 7 24 7 0 0 0 0 0 0 0 0 0 0 1 0 0 2 0 0 0 0 0 0 0 0 0 0 0 0 0 0 0 0 0 0
0 0 0 0 0 0 1 4 21 0 24 43 71 46 29 42 18 0 0 0 0 0 0 0 0 0 0 0 0 0 0 0 0 0 0 2 0 0 0 0 0 0 0 0 0 0 0 2 5
0 0 0 0 0 0 8 1 0 0 1 44 46 82 58 40 4 0 0 0 0 0 0 0 0 0 0 0 1 0 0 0 0 0 0 0 0 0 0 0 0 0 0 0 0 1 1 2 1
0 0 0 0 0 0 0 0 17 0 0 0 2 70 28 6 0 0 0 0 0 0 0 0 0 0 0 0 3 0 0 0 0 0 0 0 0 0 0 0 0 0 20 8 13 29 9 18 8
CIN
-440 -495 -437 -453 -0 -26 -163 -56 -73 -85 -116 -77 -124 -108 -111 -101 -28 -32 -13 -5 -3 -3 -3 -0 -0 -2 -8 -13 -23 -20 -19 -19 -21 -23 -35 -46 -59 -62 -73 -64 -58 -34 -3 -0 -0 -0 -0 -0 -0
-0 -0 -0 -0 -0 -82 -101 -86 -78 -106 -95 -111 -119 -66 -89 -39 -19 -0 -21 -88 -2 -6 -7 -3 -0 -2 -10 -13 -18 -20 -16 -20 -27 -30 -36 -51 -69 -81 -82 -73 -74 -64 -27 -22 -3 -0 -0 -0 -0
-0 -13 -0 -0 -0 -70 -87 -40 -81 -62 -53 -106 -139 -73 -35 -1 -16 -5 -29 -48 -6 -7 -7 -1 -0 -0 -0 -2 -8 -26 -29 -27 -21 -15 -16 -28 -48 -67 -88 -105 -97 -67 -52 -26 -10 -1 -0 -2 -1
-0 -0 -136 -0 -0 -9 -35 -15 -98 -115 -120 -159 -157 -130 -37 -17 -1 -3 -4 -13 -16 -6 -5 -1 -0 -0 -0 -0 -0 -0 -2 -17 -44 -59 -66 -63 -61 -61 -65 -83 -0 -0 -2 -63 -59 -48 -42 -55 -50
-0 -12 -270 -123 -0 -0 -77 -76 -46 -114 -139 -142 -142 -57 -36 -9 -25 -13 -18 -23 -53 -41 -26 -2 -0 -0 -11 -34 -29 -34 -53 -66 -73 -64 -52 -42 -35 -36 -59 -0 -0 -0 -0 -0 -0 -66 -78 -96 -107
-332 -182 -0 -0 -27 -0 -90 -102 -157 -216 -184 -139 -95 -47 -9 -8 -24 -13 -16 -27 -40 -97 -109 -71 -33 -43 -53 -73 -101 -96 -0 -0 -0 -0 -0 -0 -0 -26 -22 -17 -1 -1 -5 -12 -0 -0 -54 -103 -127
-313 -0 -96 -183 -0 -187 -69 -71 -90 -156 -143 -127 -88 -28 -4 -9 -16 -14 -11 -24 -46 -55 -75 -0 -0 -0 -0 -0 -0 -0 -0 -0 -0 -0 -0 -0 -0 -3 -4 -5 -9 -10 -6 -0 -5 -37 -68 -11 -128
-14 -0 -263 -202 -185 -94 -23 -135 -157 -126 -78 -54 -51 -19 -0 -3 -11 -38 -0 -162 -124 -0 -0 -0 -0 -0 -0 -0 -0 -0 -0 -0 -0 -0 -0 -0 -0 -0 -0 -5 -25 -7 -11 -18 -16 -3 -24 -60 -94
-13 -242 -0 -179 -0 -51 -138 -189 -223 -203 -140 -158 -125 -67 -22 -31 -0 -0 -0 -0 -0 -0 -0 -0 -0 -0 -0 -0 -0 -0 -13 -14 -13 -0 -0 -0 -0 -0 -0 -23 -1 -0 -0 -2 -2 -6 -17 -20 -23
-0 -0 -233 -40 -5 -132 -185 -248 -267 -231 -173 -120 -128 -0 -28 -20 -0 -0 -0 -0 -0 -0 -0 -0 -0 -0 -0 -0 -0 -0 -0 -0 -0 -0 -0 -0 -0 -0 -0 -0 -0 -0 -3 -0 -0 -11 -4 -15 -69
-195 -138 -188 -107 -202 -185 -258 -284 -319 -269 -239 -148 -166 -0 -0 -0 -0 -0 -0 -0 -0 -0 -0 -0 -0 -0 -0 -0 -0 -0 -0 -0 -0 -0 -0 -0 -0 -0 -0 -0 -0 -0 -0 -0 -0 -6 -64 -51 -0
-110 -208 -186 -195 -89 -145 -236 -352 -420 -338 -243 -219 -0 -0 -0 -0 -0 -0 -0 -0 -0 -0 -0 -0 -0 -0 -0 -0 -0 -0 -0 -0 -0 -0 -0 -0 -0 -0 -0 -0 -0 -0 -0 -0 -0 -0 -0 -123 -0
-24 -218 -245 -282 -304 -374 -420 -420 -388 -314 -230 -0 -0 -0 -0 -0 -0 -0 -0 -0 -0 -0 -0 -0 -0 -0 -0 -0 -0 -0 -0 -0 -0 -0 -0 -0 -0 -0 -0 -0 -0 -0 -0 -0 -0 -0 -0 -36 -97
-0 -142 -195 -194 -309 -453 -453 -349 -302 -204 -0 -0 -0 -0 -0 -0 -0 -0 -0 -0 -58 -73 -56 -0 -0 -0 -0 -0 -0 -0 -0 -0 -0 -0 -0 -0 -0 -0 -0 -0 -0 -0 -0 -0 -0 -98 -0 -0 -38
-339 -0 -110 -0 -297 -324 -378 -196 -235 -170 -97 -0 -0 -0 -0 -0 -0 -0 -54 -57 -75 -4 -0 -0 -0 -0 -0 -0 -0 -0 -0 -0 -0 -0 -0 -0 -0 -0 -0 -0 -0 -0 -0 -0 -0 -7 -0 -71 -133
-243 -339 -0 -0 -298 -296 -193 -129 -198 -40 -0 -0 -0 -0 -0 -0 -0 -54 -77 -105 -125 -0 -0 -0 -0 -0 -0 -0 -0 -0 -0 -0 -0 -0 -0 -0 -0 -0 -0 -0 -0 -0 -0 -0 -0 -0 -136 -59 -12
-18 -68 -126 -292 -0 -281 -181 -112 -95 -74 -136 -0 -0 -0 -0 -0 -122 -79 -30 -0 -0 -0 -0 -0 -0 -0 -0 -0 -0 -0 -0 -0 -0 -0 -0 -0 -0 -0 -0 -0 -0 -0 -0 -0 -0 -0 -0 -75 -0
-77 -0 -212 -170 -388 -312 -206 -108 -61 -52 -19 -31 -26 -14 -0 -36 -73 -60 -0 -0 -0 -0 -0 -0 -0 -0 -0 -0 -0 -0 -0 -0 -0 -0 -0 -0 -0 -0 -0 -0 -0 -0 -0 -0 -0 -0 -0 -0 -0
-112 -163 -110 -272 -0 -69 -180 -198 -119 -67 -14 -7 -5 -5 -21 -24 -34 -0 -0 -0 -0 -0 -0 -0 -0 -0 -0 -0 -0 -0 -0 -0 -0 -0 -0 -0 -0 -0 -0 -0 -0 -0 -0 -0 -0 -0 -0 -0 -0
-86 -112 -130 -98 -0 -231 -167 -146 -19 -73 -14 -16 -7 -8 -24 -99 -105 -0 -0 -0 -0 -0 -0 -0 -0 -0 -0 -0 -0 -0 -0 -0 -0 -0 -0 -0 -0 -0 -0 -0 -0 -0 -0 -0 -0 -0 -0 -0 -0
-80 -111 -140 -128 -118 -71 -0 -0 -48 -62 -76 -9 -37 -86 -47 -75 -33 -0 -0 -0 -0 -0 -0 -0 -0 -0 -0 -0 -0 -0 -0 -0 -0 -0 -0 -0 -0 -0 -0 -0 -0 -0 -0 -0 -0 -0 -0 -0 -0
-75 -10 -65 -97 -152 -128 -179 -0 -32 -40 -0 -0 -0 -58 -0 -37 -63 -0 -0 -0 -0 -0 -0 -0 -0 -0 -0 -0 -0 -0 -0 -0 -0 -0 -0 -0 -0 -0 -0 -0 -0 -0 -0 -0 -0 -0 -0 -0 -0
-0 -98 -0 -5 -232 -232 -203 -0 -0 -27 -43 -9 -0 -0 -155 -127 -56 -89 -30 -0 -0 -0 -0 -0 -0 -0 -0 -0 -0 -0 -0 -0 -0 -0 -0 -0 -0 -0 -0 -0 -0 -0 -0 -0 -0 -0 -0 -0 -0
-0 -81 -66 -0 -0 -0 -0 -0 -0 -58 -42 -44 -56 -91 -28 -68 -71 -98 -102 -0 -0 -0 -0 -0 -0 -0 -0 -0 -0 -0 -0 -0 -0 -0 -0 -0 -0 -0 -0 -0 -0 -0 -0 -0 -0 -0 -0 -0 -0
-0 -0 -0 -0 -0 -1 -0 -0 -0 -0 -97 -83 -62 -61 -82 -160 -142 -108 -16 -0 -0 -0 -0 -0 -0 -0 -0 -0 -0 -0 -0 -0 -0 -0 -0 -0 -0 -0 -0 -0 -0 -0 -0 -0 -0 -86 -74 -0 -0
-0 -0 -0 -0 -0 -0 -0 -0 -0 -0 -90 -0 -10 -108 -0 -130 -105 -88 -0 -0 -0 -0 -0 -0 -0 -0 -0 -0 -56 -0 -0 -0 -0 -0 -0 -0 -0 -0 -0 -0 -0 -0 -17 -115 -113 -103 -81 -0 -0
-0 -0 -0 -0 -0 -0 -0 -8 -34 -43 -60 -85 -106 -14 -101 -118 -155 -0 -0 -0 -0 -0 -0 -0 -0 -0 -0 -71 -0 -45 -62 -0 -0 -0 -0 -0 -0 -0 -0 -0 -0 -0 -0 -0 -0 -0 -0 -33 -24
-0 -0 -0 -0 -0 -0 -1 -7 -17 -0 -19 -48 -65 -83 -117 -110 -129 -0 -0 -0 -0 -0 -0 -0 -0 -0 -0 -0 -0 -0 -0 -0 -0 -0 -0 -33 -0 -0 -0 -0 -0 -0 -0 -0 -0 -0 -0 -85 -78
-0 -0 -0 -0 -0 -0 -0 -4 -0 -0 -12 -35 -24 -34 -61 -84 -96 -0 -0 -0 -0 -0 -0 -0 -0 -0 -0 -0 -62 -0 -0 -0 -0 -0 -0 -0 -0 -0 -0 -0 -0 -0 -0 -0 -0 -59 -94 -38 -63
-0 -0 -0 -0 -0 -0 -0 -0 -30 -0 -0 -0 -4 -32 -68 -112 -0 -0 -0 -0 -0 -0 -0 -0 -0 -0 -0 -0 -90 -0 -0 -0 -0 -0 -0 -0 -0 -0 -0 -0 -0 -0 -66 -108 -108 -72 -72 -53 -79
Wind_Speed
6 5 3 5 7 4 1 2 6 5 7 14 15 16 11 11 6 9 2 3 2 3 3 9 13 13 13 13 13 13 13 12 12 13 13 13 13 13 13 12 12 12 11 11 8 8 8 8 10
5 4 5 4 6 1 1 4 11 13 17 17 17 14 12 12 8 12 8 12 5 5 3 5 13 13 13 13 13 13 13 12 12 12 12 12 11 11 11 11 11 11 10 9 8 7 7 7 9
7 2 5 6 4 4 5 12 15 14 7 5 7 9 5 5 13 13 7 11 7 6 5 9 13 13 13 13 12 12 12 12 12 11 10 10 9 8 8 9 9 9 9 8 6 7 6 5 6
5 5 5 7 8 3 4 3 13 10 10 9 11 10 6 6 3 10 14 11 11 7 7 11 13 13 13 13 13 12 12 12 11 10 9 8 7 6 6 6 6 6 6 6 5 4 3 3 3
5 3 5 5 10 6 5 10 4 14 9 8 4 8 5 6 16 15 14 11 10 6 6 6 12 12 11 10 11 11 10 10 10 10 10 8 7 5 4 4 4 4 4 3 4 4 3 3 5
6 3 6 5 5 9 7 3 13 18 18 14 16 9 4 4 11 11 13 10 8 8 5 5 11 11 10 10 9 8 8 8 7 7 6 5 8 0 4 4 4 4 5 5 4 3 4 6 7
7 4 2 12 5 5 4 6 8 10 11 11 10 6 3 3 11 10 12 10 7 6 5 5 5 7 8 7 6 5 6 6 6 5 6 5 9 7 6 4 2 4 4 5 7 7 6 7 8
6 6 3 1 6 5 7 5 7 11 9 4 4 6 6 2 12 12 10 9 6 5 5 4 4 3 3 4 4 3 4 4 3 5 8 11 10 12 15 7 5 7 6 8 9 8 7 9 10
6 5 4 9 8 5 8 6 5 6 7 5 4 7 7 9 7 11 10 8 5 6 6 6 6 5 5 3 5 9 10 11 8 7 8 7 5 6 9 14 10 10 9 10 11 10 8 8 10
7 3 3 4 5 5 6 8 7 5 9 7 10 8 6 9 6 9 7 5 4 5 5 4 6 7 6 4 3 5 7 5 4 5 6 5 6 7 9 12 16 17 16 15 13 11 11 9 2
4 2 7 3 6 15 8 13 7 11 5 5 10 7 7 14 8 9 10 8 7 5 3 4 5 5 6 6 5 4 3 4 4 6 6 6 5 4 5 4 4 4 11 6 7 6 3 2 3
7 4 9 19 13 6 2 7 6 5 3 9 8 7 7 11 9 8 8 7 6 5 4 6 7 7 7 4 4 4 4 3 4 5 6 5 4 5 4 3 4 4 5 6 5 4 5 4 4
4 5 11 24 18 11 14 11 10 11 13 12 9 8 7 7 7 6 6 5 7 5 6 7 7 7 6 6 4 4 4 4 2 4 5 4 4 5 5 4 2 4 4 5 5 5 5 5 4
4 6 6 5 9 8 16 12 7 11 12 16 11 6 3 7 6 4 4 5 7 7 8 8 7 7 6 5 6 5 5 3 4 3 4 5 3 3 4 5 5 4 4 5 5 4 4 5 3
5 3 3 5 2 5 18 7 7 13 11 10 14 9 8 7 7 6 6 7 6 7 7 6 4 5 8 7 6 5 5 5 3 3 3 3 2 2 3 3 4 4 4 6 5 3 4 4 3
5 3 2 4 5 5 2 6 14 14 15 13 16 14 10 9 8 9 9 8 7 7 8 5 6 7 7 7 5 4 4 3 2 1 2 4 5 4 4 3 4 4 4 3 3 4 3 1 3
3 4 2 6 5 5 5 11 12 11 11 12 9 11 12 9 9 10 8 7 7 7 6 5 6 5 5 6 5 5 4 3 2 2 2 5 5 6 3 4 5 5 4 4 3 3 2 2 4
5 5 5 6 5 9 15 10 11 7 7 12 10 12 9 8 10 7 10 8 7 7 6 5 4 3 5 4 4 4 4 3 2 2 3 5 4 6 4 4 5 4 4 4 3 3 2 3 3
6 4 6 8 2 11 8 7 5 1 7 13 5 15 7 2 4 10 7 7 6 5 5 5 4 1 2 2 3 3 3 4 3 3 5 4 4 5 5 4 5 4 3 4 5 3 3 3 1
5 3 1 11 14 13 8 6 6 11 9 17 17 14 10 6 6 7 7 6 6 6 5 5 3 0 1 1 2 2 2 3 3 3 5 5 5 5 4 5 5 5 4 5 4 2 2 2 2
5 3 2 5 14 19 7 10 4 8 10 8 10 11 7 7 6 7 7 5 6 7 5 6 5 4 2 3 2 3 2 3 4 4 4 5 6 6 5 6 5 5 4 4 4 3 3 3 2
3 4 5 19 8 4 3 5 6 5 7 7 7 4 5 7 10 8 6 6 7 5 6 7 6 4 3 2 2 2 1 2 2 3 4 5 5 6 6 6 5 5 4 5 4 3 2 2 4
7 3 6 19 11 6 7 7 3 4 3 9 10 6 5 6 5 8 6 7 3 8 7 7 5 2 2 2 2 2 3 2 3 3 6 5 5 5 6 6 6 6 4 5 5 4 3 3 3
3 3 13 6 6 6 7 3 4 2 6 4 6 7 6 9 7 7 6 7 5 6 7 4 2 3 3 2 3 2 4 5 3 4 4 4 4 4 5 6 5 5 5 5 4 4 3 3 3
12 7 4 5 7 2 7 4 5 5 3 5 7 8 8 5 8 8 6 7 7 7 4 4 4 2 4 3 3 5 6 4 3 4 3 5 4 3 6 5 6 4 5 5 4 4 4 4 3
4 4 6 1 4 2 6 3 5 2 6 6 6 3 8 7 3 3 8 6 7 8 6 4 2 1 5 5 5 4 5 3 3 3 3 3 2 4 4 6 5 6 6 6 5 3 4 4 4
6 4 1 8 5 5 2 3 7 5 3 4 4 7 8 3 7 9 8 4 7 6 5 6 3 4 6 5 5 5 3 4 3 5 3 2 4 3 5 5 5 6 6 6 6 4 4 4 3
5 4 6 5 4 4 2 2 4 7 4 5 6 6 6 8 6 6 6 7 5 6 6 5 4 5 4 5 2 2 4 3 3 3 4 3 4 3 5 6 5 6 6 6 6 5 3 2 4
6 6 6 6 4 5 4 2 5 3 0 4 2 6 9 7 8 7 6 6 7 4 4 4 5 3 3 3 2 2 4 3 3 2 3 2 3 5 5 4 5 5 6 6 5 6 6 5 5
2 4 4 6 1 3 5 2 3 0 5 6 2 6 5 9 7 7 8 7 7 6 6 6 4 5 4 3 1 2 4 4 4 3 4 4 4 3 4 4 4 4 5 5 6 5 6 6 6
Wind_Direction
135 149 92 48 62 30 135 81 131 109 65 78 76 78 84 38 22 121 195 287 224 56 77 99 98 95 94 93 92 90 88 86 86 82 79 74 74 74 73 73 71 67 65 70 95 104 95 100 96
137 154 50 76 67 30 283 115 84 97 120 102 81 96 60 72 67 120 128 219 153 103 77 82 96 95 91 89 88 83 81 79 79 78 77 76 71 68 67 65 63 65 67 68 79 83 81 79 81
152 55 66 69 26 351 327 115 118 123 118 88 104 53 50 83 125 156 193 192 119 89 78 87 89 90 91 87 84 83 83 82 79 77 74 72 70 65 64 63 61 60 64 71 66 71 63 53 72
141 39 55 86 28 275 287 82 117 115 72 56 112 69 75 350 95 127 132 119 97 84 82 88 86 84 82 82 79 76 71 68 68 69 65 60 56 56 51 49 53 58 59 59 63 70 62 22 25
38 50 75 70 4 290 285 307 154 98 93 87 86 97 76 43 108 118 109 101 101 82 70 86 98 95 92 87 83 79 76 69 60 53 46 37 24 19 22 15 8 4 16 44 42 30 17 349 329
55 79 67 79 184 265 283 292 92 93 100 94 85 92 53 139 109 118 111 107 104 101 81 84 99 96 95 96 95 96 93 86 75 68 54 44 11 350 342 335 328 335 332 329 333 333 329 326 322
99 71 141 140 218 297 230 188 69 121 95 72 125 92 94 79 127 115 111 110 101 95 84 59 45 77 87 89 87 85 94 106 101 82 64 38 28 43 332 281 276 290 297 299 296 298 303 307 312
94 101 136 198 181 239 153 90 65 50 78 71 13 143 139 99 117 110 103 104 103 91 84 65 50 50 40 13 58 28 11 2 45 31 50 62 47 35 11 323 261 276 285 282 268 264 280 302 309
122 67 183 176 169 212 152 108 53 56 98 59 26 71 85 106 102 105 104 99 85 75 59 38 20 22 8 357 354 351 335 335 337 9 27 32 34 21 26 22 339 321 303 296 291 281 256 273 297
73 56 256 151 165 107 75 102 117 101 95 78 93 62 66 101 134 115 110 95 79 54 46 50 44 48 43 39 25 12 9 348 5 358 45 35 43 35 38 23 14 5 8 338 298 290 272 291 332
39 338 297 85 88 95 90 65 102 116 56 129 134 115 96 106 103 97 86 92 119 130 82 57 57 44 34 15 8 14 6 0 9 26 39 51 45 29 22 12 2 348 2 357 354 334 321 261 267
130 343 47 47 67 100 86 112 89 73 109 115 111 97 97 98 99 98 91 99 107 105 105 56 39 27 23 22 9 5 7 355 21 31 33 43 29 22 18 8 356 348 345 347 341 332 315 262 260
109 126 93 128 156 129 121 117 104 90 105 104 92 86 97 103 112 94 87 94 88 74 83 58 39 28 10 13 349 347 345 5 56 56 41 44 34 17 356 347 349 341 338 336 316 327 324 344 318
68 82 96 121 164 127 110 121 81 128 133 118 114 112 121 137 142 120 133 142 106 105 92 78 39 15 6 353 350 334 317 32 89 69 55 44 46 34 3 339 329 337 323 314 301 311 318 307 359
94 43 233 338 193 107 116 87 98 145 143 138 136 150 177 184 165 185 156 136 136 81 77 87 81 2 16 4 5 358 358 74 65 58 13 26 40 11 356 334 318 309 306 299 298 299 296 297 9
76 75 293 203 184 104 18 89 145 160 165 161 172 163 182 198 194 159 156 142 106 95 91 80 51 35 3 8 7 6 11 25 93 73 351 346 357 358 352 322 302 288 295 274 278 260 219 339 334
51 267 210 316 83 113 72 135 173 181 175 175 164 193 176 198 159 158 143 134 127 118 121 90 57 41 356 352 357 354 353 4 6 8 336 360 351 347 345 326 305 308 308 313 319 314 3 303 306
212 234 238 225 86 72 86 126 173 197 191 190 177 214 178 176 161 144 141 137 128 136 129 128 88 23 349 346 342 335 342 15 331 330 2 344 334 332 339 323 318 328 326 314 314 304 285 239 263
184 213 220 75 6 61 109 167 208 305 263 220 198 99 166 228 150 154 152 133 138 135 150 134 114 332 5 343 332 339 331 326 330 340 334 338 332 330 332 322 319 320 324 302 297 279 274 292 261
198 182 331 87 111 86 112 99 32 44 44 96 106 164 174 171 178 163 165 162 158 174 187 133 126 249 318 314 289 259 269 285 279 312 313 318 319 320 318 320 314 320 320 319 319 283 289 266 223
225 172 148 143 95 129 95 57 30 77 96 117 156 158 175 169 171 196 191 170 170 199 163 157 177 208 231 263 291 328 357 349 346 342 317 319 309 305 316 310 308 317 313 295 289 275 237 266 282
330 249 251 129 115 173 195 141 28 109 122 151 188 197 217 195 183 214 212 171 195 196 180 163 204 211 240 314 312 8 28 314 275 270 281 300 307 301 304 311 314 311 303 304 289 270 251 219 264
238 221 93 108 109 101 7 81 212 183 189 201 232 226 238 227 232 210 181 195 166 153 181 191 196 287 311 314 309 351 341 274 279 295 320 325 314 313 304 315 328 322 309 309 302 306 288 225 244
259 42 99 94 97 57 303 117 306 4 292 200 217 238 239 220 200 162 219 119 153 170 191 135 171 278 291 341 331 265 255 280 315 309 311 317 314 310 327 326 328 324 328 344 343 341 332 312 282
49 51 1 3 35 86 324 44 249 303 327 265 217 223 221 170 161 180 160 154 175 190 167 172 212 268 293 3 317 250 250 264 261 278 276 310 311 312 317 321 324 321 318 338 329 334 333 337 316
47 140 150 212 145 150 349 15 281 275 320 25 72 151 140 176 195 201 168 179 167 183 185 178 225 312 301 300 279 253 243 252 261 273 283 291 260 274 302 312 322 329 332 337 343 337 342 349 337
326 18 58 102 56 87 309 345 303 285 269 116 140 149 184 183 188 173 183 156 155 169 172 196 189 241 267 297 307 306 306 269 277 294 273 277 280 297 328 323 338 331 337 339 330 339 354 353 329
58 284 22 14 114 116 144 320 279 329 301 197 214 217 204 209 192 199 181 159 169 177 196 198 222 239 274 290 281 315 321 302 276 289 331 261 295 311 320 323 330 335 343 354 354 344 350 60 334
352 15 51 107 96 135 150 287 235 127 72 110 239 207 207 208 195 187 181 189 188 186 200 212 245 263 297 290 290 322 318 312 294 322 306 267 306 311 334 332 340 357 11 5 15 3 349 53 31
353 345 109 110 120 92 124 274 23 236 124 116 176 213 211 203 180 183 185 185 182 193 191 218 240 263 273 258 313 272 290 287 307 282 266 261 257 275 324 346 360 358 14 3 7 1 8 6 48